Location: Newark
(39.6867°N, 100.6772°W)
Time: 20:00:27
(UTC+00:00)

Vanguard 1 Rocket - Pass Details

Date: 23 October 2019
Orbit: 651 x 4225 km, 34.3° (Epoch: 16 November)

Event Time Altitude Azimuth Distance (km) Brightness Sun altitude
Rises 21:13:30 0° 281° (W) 6,817 12.3 25.9°
Reaches altitude 10° 21:17:29 10° 278° (W) 6,169 12.3 25.3°
Maximum altitude 21:38:47 59° 206° (SSW) 4,551 11.8 22.2°
Drops below altitude 10° 22:03:20 10° 134° (SE) 6,924 11.8 18.3°
Sets 22:08:13 0° 131° (SE) 7,644 11.9 17.5°
